This demonstration page uses our WeatherBlox Daily Observations layout. Learn more.

Left ArrowRight Arrow

31.84235, -102.49876

Hourly Observations for July 4, 2022

Temp ( °F °C ) Dew Point ( °F °C ) Humidity (%) Winds ( mph kmh ) Pressure ( in mb ) Visibility ( mi km ) Precip ( " mm )
12:53 am 00:53 Clear 80 26.7 62 16.7 54 54 SSE 12 19 29.90 1013 10 16 0.00 0.00
1:53 am 01:53 Clear 79 26.1 63 17.2 58 58 SSE 12 19 29.89 1012 10 16 0.00 0.00
2:53 am 02:53 Clear 78 25.6 63 17.2 60 60 SE 12 19 29.88 1012 10 16 0.00 0.00
3:53 am 03:53 Clear 77 25 63 17.2 62 62 SE 9 15 29.88 1012 10 16 0.00 0.00
4:53 am 04:53 Clear 77 25 65 18.3 66 66 SSE 13 20 29.88 1012 10 16 0.00 0.00
5:53 am 05:53 Clear 77 25 66 18.9 69 69 S 13 20 29.88 1012 10 16 0.00 0.00
6:53 am 06:53 Sunny 76 24.4 67 19.4 74 74 S 12 19 29.89 1012 10 16 0.00 0.00
7:53 am 07:53 Sunny 76 24.4 67 19.4 74 74 S 17 28 29.90 1013 10 16 0.00 0.00
8:53 am 08:53 Sunny 79 26.1 67 19.4 67 67 S 20 31 29.91 1013 10 16 0.00 0.00
9:53 am 09:53 Sunny 82 27.8 67 19.4 60 60 S 18 30 29.92 1013 10 16 0.00 0.00
10:53 am 10:53 Sunny 85 29.4 66 18.9 53 53 S 15 24 29.91 1013 10 16 0.00 0.00
11:53 am 11:53 Sunny 89 31.7 65 18.3 45 45 S 12 19 29.90 1013 10 16 0.00 0.00
12:53 pm 12:53 Sunny 92 33.3 64 17.8 40 40 S 10 17 29.89 1012 10 16 0.00 0.00
1:53 pm 13:53 Sunny 93 33.9 62 16.7 36 36 SW 6 9 29.87 1012 10 16 0.00 0.00
2:53 pm 14:53 Mostly Sunny 96 35.6 61 16.1 31 31 SW 8 13 29.85 1011 10 16 0.00 0.00
3:53 pm 15:53 Mostly Sunny 97 36.1 58 14.4 27 27 SSE 13 20 29.82 1010 10 16 0.00 0.00
4:53 pm 16:53 Mostly Sunny 99 37.2 58 14.4 26 26 SSE 15 24 29.80 1009 10 16 0.00 0.00
5:53 pm 17:53 Partly Cloudy 98 36.7 59 15 27 27 S 15 24 29.78 1009 10 16 0.00 0.00
6:53 pm 18:53 Mostly Sunny 97 36.1 59 15 28 28 S 20 31 29.79 1009 10 16 0.00 0.00
7:53 pm 19:53 Mostly Cloudy 93 33.9 61 16.1 34 34 S 23 37 29.81 1009 10 16 0.00 0.00
8:08 pm 20:08 Mostly Cloudy with Thunderstorms 90 32.2 62 16.7 39 39 SSW 26 43 29.74 1007 8 13 0.00 0.00
8:26 pm 20:26 Partly Cloudy with Nearby Thunderstorms 87 30.6 60 15.6 40 40 SW 25 41 29.76 1008 5 8 0.00 0.00
8:53 pm 20:53 Sunny 83 28.3 65 18.3 55 55 WSW 13 20 29.85 1011 10 16 0.00 0.00
9:53 pm 21:53 Clear 83 28.3 66 18.9 57 57 SW 10 17 29.86 1011 9 14 0.00 0.00
10:53 pm 22:53 Clear 82 27.8 66 18.9 58 58 SW 8 13 29.88 1012 9 14 0.00 0.00
11:53 pm 23:53 Clear 81 27.2 66 18.9 61 61 WSW 5 7 29.89 1012 10 16 0.00 0.00

Powered by AerisWeather